CW9809 Weather Reports


Display with metric or nautical units.
time (UTC)temp
F
wind
direction
speed
MPH
gust
MPH
rain 1hr
in
rain 24hr
in
rain mn
in
humidity
%
barometer
mb
20260510001524 53 200 0.0 0.0 0.00 0.88 0.88 93 1011.0
20260510000028 53 200 0.0 0.0 0.00 0.88 0.88 93 1011.1
20260509234528 53 200 0.0 0.0 0.03 0.88 0.88 93 1011.1
20260509233018 53 200 0.0 0.0 0.07 0.88 0.88 92 1011.2
20260509231520 53 200 0.0 0.0 0.12 0.88 0.88 92 1011.2
20260509230034 53 200 0.0 0.0 0.15 0.88 0.88 92 1011.4
20260509224530 53 200 0.0 0.0 0.15 0.85 0.85 92 1011.5
20260509223030 53 200 0.0 0.0 0.13 0.81 0.81 92 1011.8
20260509221529 53 199 0.0 0.0 0.10 0.76 0.76 92 1011.7
20260509220023 54 200 0.0 0.0 0.07 0.73 0.73 92 1011.9
20260509214529 54 199 0.0 0.0 0.05 0.70 0.70 92 1012.1
20260509213028 54 200 0.0 0.0 0.04 0.68 0.68 92 1012.0
20260509211528 54 200 0.0 0.0 0.04 0.66 0.66 92 1012.0
20260509210032 55 200 0.0 0.0 0.07 0.66 0.66 92 1011.8
20260509204526 55 200 0.0 0.0 0.10 0.65 0.65 92 1011.5
20260509203028 54 199 0.0 0.0 0.12 0.64 0.64 91 1012.1
20260509201528 54 200 0.0 5.0 0.19 0.62 0.62 91 1012.0
20260509200014 55 34 0.0 0.0 0.45 0.58 0.58 91 1012.3
20260509194531 54 34 0.0 0.0 0.52 0.55 0.55 90 1012.1
20260509193026 54 34 0.0 0.0 0.50 0.52 0.52 90 1012.1
20260509191508 55 34 0.0 0.0 0.41 0.43 0.43 88 1012.3
20260509190018 56 26 0.0 0.0 0.12 0.14 0.14 86 1012.0
20260509184521 57 22 0.0 0.0 0.01 0.03 0.03 82 1011.7
20260509183023 58 21 0.0 0.0 0.00 0.02 0.02 80 1011.6
20260509181527 58 21 0.0 0.0 0.00 0.02 0.02 78 1011.5
20260509180012 58 21 0.0 0.0 0.00 0.02 0.02 79 1011.6
20260509174515 58 21 0.0 0.0 0.00 0.02 0.02 79 1011.4
20260509173026 58 22 0.0 0.0 0.00 0.02 0.02 80 1011.9
20260509171529 57 21 0.0 0.0 0.00 0.02 0.02 82 1012.0
20260509170026 56 21 0.0 0.0 0.00 0.02 0.02 82 1012.5
20260509164511 55 21 0.0 0.0 0.00 0.02 0.02 83 1012.6
20260509163017 55 21 0.0 0.0 0.00 0.02 0.02 84 1012.7
20260509161517 54 21 0.0 0.0 0.00 0.02 0.02 85 1013.0
20260509160024 54 21 0.0 0.0 0.00 0.02 0.02 85 1013.0
20260509154528 53 21 0.0 0.0 0.00 0.02 0.02 85 1013.2
20260509153046 53 21 0.0 0.0 0.00 0.02 0.02 84 1013.3
20260509151516 53 21 0.0 0.0 0.00 0.02 0.02 84 1013.3
20260509150022 53 22 0.0 0.0 0.00 0.02 0.02 83 1013.2
20260509144524 52 22 0.0 0.0 0.00 0.02 0.02 84 1013.0
20260509143029 51 51 0.0 0.0 0.00 0.02 0.02 83 1013.2
20260509141537 51 51 0.0 0.0 0.00 0.02 0.02 84 1013.1
20260509140017 50 53 0.0 0.0 0.00 0.02 0.02 85 1013.1
20260509134521 50 82 0.0 0.0 0.00 0.02 0.02 85 1013.1
20260509133027 49 101 0.0 0.0 0.00 0.02 0.02 86 1013.3
20260509131526 48 83 0.0 0.0 0.00 0.02 0.02 86 1013.4
20260509130030 48 11 0.0 0.0 0.00 0.02 0.02 87 1013.8
20260509124521 47 11 0.0 0.0 0.00 0.02 0.02 88 1013.9
20260509123026 46 11 0.0 0.0 0.00 0.02 0.02 88 1013.9
20260509121529 46 11 0.0 0.0 0.00 0.02 0.02 88 1014.0
20260509120028 45 9 0.0 0.0 0.00 0.02 0.02 88 1013.9
20260509114535 45 9 0.0 0.0 0.00 0.02 0.02 88 1014.2
20260509113023 45 17 0.0 0.0 0.00 0.02 0.02 89 1014.1
20260509111524 45 17 0.0 0.0 0.00 0.02 0.02 89 1014.1
20260509110007 44 15 0.0 0.0 0.00 0.02 0.02 89 1013.9
20260509104513 44 12 0.0 0.0 0.00 0.02 0.02 89 1013.8
20260509103018 44 5 0.0 0.0 0.00 0.02 0.02 89 1013.8
20260509101505 44 360 0.0 0.0 0.00 0.02 0.02 89 1013.8
20260509100008 44 360 0.0 0.0 0.00 0.02 0.02 88 1013.8
20260509094515 44 5 0.0 0.0 0.00 0.02 0.02 88 1013.7
20260509093015 44 5 0.0 0.0 0.01 0.02 0.02 87 1013.5
20260509091522 44 360 0.0 0.0 0.01 0.02 0.02 87 1013.6
20260509090003 44 5 0.0 0.0 0.02 0.02 0.02 85 1013.7
20260509084509 45 360 0.0 0.0 0.02 0.02 0.02 83 1013.5
20260509083012 45 5 0.0 0.0 0.01 0.01 0.01 82 1013.6
20260509081516 46 5 0.0 0.0 0.01 0.01 0.01 79 1013.6
20260509080023 46 360 0.0 0.0 0.00 0.00 0.00 77 1013.5
20260509074507 45 5 0.0 0.0 0.00 0.00 0.00 78 1013.3
20260509073025 45 360 0.0 0.0 0.00 0.00 0.00 77 1013.0
20260509071513 46 5 0.0 0.0 0.00 0.00 0.00 76 1013.0
20260509070018 46 5 0.0 0.0 0.00 0.00 0.00 74 1013.2
20260509064524 46 5 0.0 0.0 0.00 0.00 0.00 74 1013.4
20260509063008 46 5 0.0 0.0 0.00 0.00 0.00 75 1013.4
20260509061509 46 360 0.0 0.0 0.00 0.00 0.00 76 1013.8
20260509060022 46 5 0.0 0.0 0.00 0.00 0.00 76 1013.8
20260509054519 46 5 0.0 0.0 0.00 0.00 0.00 75 1013.8
20260509053041 46 5 0.0 0.0 0.00 0.00 0.00 74 1013.9
20260509051528 46 360 0.0 0.0 0.00 0.00 0.00 75 1013.9
20260509050011 46 360 0.0 0.0 0.00 0.00 0.00 75 1014.0
20260509044516 46 5 0.0 0.0 0.00 0.00 0.00 75 1014.0
20260509043037 46 5 0.0 0.0 0.00 0.00 0.00 74 1014.0
20260509041525 46 5 0.0 0.0 0.00 0.00 0.00 74 1014.0
20260509040027 46 360 0.0 0.0 0.00 0.00 0.00 73 1014.0
20260509034512 46 360 0.0 0.0 0.00 0.00 0.00 70 1013.9
20260509033015 45 5 0.0 0.0 0.00 0.00 0.00 72 1013.7
20260509031523 46 5 0.0 0.0 0.00 0.00 0.00 71 1013.7
20260509030027 46 360 0.0 0.0 0.00 0.00 0.00 69 1013.6
20260509024529 47 360 0.0 0.0 0.00 0.00 0.00 67 1013.5
20260509023013 47 360 0.0 0.0 0.00 0.00 0.00 65 1013.6
20260509021520 48 5 0.0 0.0 0.00 0.00 0.00 64 1013.4
20260509020022 48 5 0.0 0.0 0.00 0.00 0.00 63 1013.6
20260509014530 49 5 0.0 0.0 0.00 0.00 0.00 59 1013.5
20260509013030 49 360 0.0 0.0 0.00 0.00 0.00 57 1013.3
20260509011515 49 360 0.0 0.0 0.00 0.00 0.00 58 1013.1
20260509010030 50 5 0.0 0.0 0.00 0.00 0.00 58 1012.9
20260509004524 50 5 0.0 0.0 0.00 0.00 0.00 58 1012.6
20260509003025 51 5 0.0 0.0 0.00 0.00 0.00 57 1012.2